Location: Molino di Ancona
(43.6167°N, 13.3667°E)
Time: 02:27:49
(UTC+00:00)

Cosmos 44 - Pass Details

Date: 15 December 2019
Orbit: 595 x 767 km, 65.1° (Epoch: 22 January)

Event Time Altitude Azimuth Distance (km) Brightness Sun altitude
Exits shadow 04:24:00 59° 325° (NW) 744 3.1 -22.4°
Drops below altitude 10° 04:28:12 10° 27° (NNE) 1,998 5.8 -21.6°
Sets 04:30:27 0° 32° (NNE) 2,888 6.7 -21.2°
